Weather History for KAUG - May, 2014

Change the Weather History Date:

Friday, May 9, 2014

  Actual Average Record
Temperature  
Mean Temperature 51 °F 53 °F  
Max Temperature 61 °F 63 °F 81 °F (2007)
Min Temperature 41 °F 43 °F 32 °F (1997)
Degree Days  
Heating Degree Days 14 12  
Month to date heating degree days 113 123  
Since 1 July heating degree days 7518 7127  
Cooling Degree Days 0 0  
Month to date cooling degree days 0 0  
Year to date cooling degree days 0 0  
Moisture  
Dew Point 33 °F    
Average Humidity 60    
Maximum Humidity 92    
Minimum Humidity 27    
Precipitation  
Precipitation T in 0.11 in 1.34 in (2000)
Month to date precipitation 0.69 1.10  
Year to date precipitation 11.25 13.30  
Sea Level Pressure  
Sea Level Pressure 30.22 in    
Wind  
Wind Speed 6 mph (South)    
Max Wind Speed 12 mph    
Max Gust Speed 20 mph    
Visibility 10 miles    
Events Rain    
T = Trace of Precipitation, MM = Missing Value Source: NWS Daily Summary

Daily Weather History Graph

Daily Weather History Graph

Search for Another Location

Airport or City:

Trip Planner

Search our weather history database for the weather conditions in past years. The results will help you decide how hot, cold, wet, or windy it might be!

Date:

Astronomy

May. 09, 2014 Rise Set
Actual Time 5:19 AM EDT 7:52 PM EDT
Civil Twilight 4:46 AM EDT 8:25 PM EDT
Nautical Twilight 4:05 AM EDT 9:07 PM EDT
Astronomical Twilight 3:18 AM EDT 9:54 PM EDT
Moon 2:35 PM EDT (5/9) 2:32 AM EDT (5/9)
Length of Visible Light 15h 39m
Length of Day
14h 33m
Waxing Gibbous, 73% of the Moon is Illuminated
May 9
Waxing Gibbous
May 14
Full
May 21
Last Quarter
May 28
New
Jun 5
First Quarter

Hourly Weather History & Observations

Time (EDT) Temp. Windchill Dew Point Humidity Pressure Visibility Wind Dir Wind Speed Gust Speed Precip Events Conditions
12:53 AM 48.9 °F - 23.0 °F 36% 30.25 in 10.0 mi NNE 6.9 mph - N/A   Clear
1:53 AM 46.9 °F - 24.1 °F 41% 30.25 in 10.0 mi NNE 4.6 mph - N/A   Clear
2:53 AM 45.0 °F 41.8 °F 24.1 °F 44% 30.25 in 10.0 mi North 5.8 mph - N/A   Clear
3:53 AM 43.0 °F 40.3 °F 25.0 °F 49% 30.24 in 10.0 mi North 4.6 mph - N/A   Clear
4:53 AM 41.0 °F 35.8 °F 26.1 °F 55% 30.26 in 10.0 mi North 8.1 mph - N/A   Clear
5:53 AM 42.1 °F 38.4 °F 26.1 °F 53% 30.27 in 10.0 mi North 5.8 mph - N/A   Clear
6:53 AM 44.1 °F - 27.0 °F 51% 30.27 in 10.0 mi Calm Calm - N/A   Clear
7:53 AM 46.9 °F - 27.0 °F 46% 30.28 in 10.0 mi NNE 4.6 mph - N/A   Overcast
8:53 AM 51.1 °F - 26.1 °F 38% 30.28 in 10.0 mi Calm Calm - N/A   Overcast
9:53 AM 55.0 °F - 27.0 °F 34% 30.28 in 10.0 mi SSE 4.6 mph - N/A   Overcast
10:53 AM 57.2 °F - 26.6 °F 31% 30.26 in 10.0 mi East 5.8 mph - N/A   Overcast
11:53 AM 60.1 °F - 27.0 °F 28% 30.25 in 10.0 mi Variable 4.6 mph - N/A   Mostly Cloudy
12:53 PM 60.1 °F - 26.1 °F 27% 30.24 in 10.0 mi SSE 11.5 mph 19.6 mph N/A   Mostly Cloudy
1:53 PM 57.9 °F - 24.1 °F 27% 30.24 in 10.0 mi South 9.2 mph - N/A   Overcast
2:53 PM 54.0 °F - 33.1 °F 45% 30.24 in 10.0 mi SSW 10.4 mph - 0.00 in Rain Light Rain
3:53 PM 51.1 °F - 39.0 °F 63% 30.22 in 10.0 mi SSE 10.4 mph - 0.00 in   Overcast
4:53 PM 48.9 °F - 39.9 °F 71% 30.22 in 10.0 mi Variable 3.5 mph - 0.00 in   Overcast
5:16 PM 48.9 °F - 39.0 °F 69% 30.21 in 10.0 mi SE 5.8 mph - N/A   Overcast
5:53 PM 48.9 °F - 39.0 °F 69% 30.19 in 10.0 mi South 5.8 mph 16.1 mph N/A   Overcast
6:44 PM 46.9 °F - 41.0 °F 80% 30.16 in 10.0 mi South 9.2 mph - N/A   Overcast
6:53 PM 46.9 °F - 42.1 °F 83% 30.17 in 10.0 mi South 8.1 mph - N/A   Overcast
7:36 PM 46.0 °F 43.9 °F 43.0 °F 89% 30.17 in 10.0 mi SSW 4.6 mph - N/A   Overcast
7:53 PM 46.0 °F 43.9 °F 43.0 °F 89% 30.17 in 7.0 mi Variable 4.6 mph - N/A   Overcast
8:53 PM 45.0 °F 40.6 °F 43.0 °F 93% 30.17 in 10.0 mi South 8.1 mph - N/A   Overcast
9:02 PM 45.0 °F 41.2 °F 43.0 °F 93% 30.15 in 10.0 mi South 6.9 mph - N/A   Overcast
9:53 PM 46.0 °F 43.1 °F 42.1 °F 86% 30.14 in 10.0 mi South 5.8 mph - N/A   Overcast
10:53 PM 46.4 °F 43.5 °F 42.8 °F 87% 30.11 in 10.0 mi South 5.8 mph - N/A   Overcast
11:53 PM 46.9 °F - 41.0 °F 80% 30.10 in 10.0 mi SSW 4.6 mph - N/A   Overcast